Regional Weather Roundup
Issued by NWS

Home | Current Version | Previous Version | Text Only | Print | Product List | Glossary Off
Versions: 1 2 3 4 5 6 7 8 9 10 11 12 13 14 15 16 17 18 19 20 21 22 23 24 25 26 27 28 29 30 31 32 33 34 35 36 37 38 39 40 41 42 43 44 45 46 47 48

000
ASUS45 KBOU 240807
RWRCO

WEATHER ROUNDUP FOR COLORADO
NATIONAL WEATHER SERVICE DENVER/BOULDER CO
100 AM MST WED DEC 24 2014

NOTE: "FAIR" INDICATES FEW OR NO CLOUDS BELOW 12000 FEET WITH NO
SIGNIFICANT WEATHER AND/OR OBSTRUCTIONS TO VISIBILITY.

COZ001>005-013-030-031-240900-
...NORTHWEST COLORADO...

CITY           SKY/WX    TMP DP  RH WIND       PRES   REMARKS
CRAIG          FAIR       0  -5  79 W5        30.25F WCI -10
HAYDEN         FAIR       7   1  78 E8        30.21F WCI  -6
MEEKER         FAIR       1  -3  83 NE7       30.25F WCI -12
MOUNT WERNER   NOT AVBL
STEAMBOAT SPGS MOCLDY    10   6  81 CALM      30.21F
WALDEN         CLOUDY     3  -4  72 E5        30.12F WCI  -6
$$

COZ006>008-011-240900-
...WEST CENTRAL VALLEYS...

CITY           SKY/WX    TMP DP  RH WIND       PRES   REMARKS
GRAND JUNCTION FAIR      23  15  71 E8        30.28S WCI  14
MONTROSE       FAIR      17  10  74 SE8       30.29F WCI   7
EAGLE          FAIR       1  -2  85 CALM      30.31S
RIFLE          FAIR      16   8  71 SE5       30.29F WCI   9
DELTA          FAIR      21  10  64 NE8       30.30F WCI  11
NUCLA          FAIR      19  10  68 E10       30.28F WCI   8
$$

COZ017>023-064>068-240900-
...SOUTHWEST COLORADO...

CITY           SKY/WX    TMP DP  RH WIND       PRES   REMARKS
DURANGO        FAIR      13   6  74 E5        30.15F WCI   5
CORTEZ         FAIR      25   7  46 NW9       30.19F WCI  15
PAGOSA SPRINGS FAIR       4  -3  70 CALM      30.13S
TELLURIDE      FAIR       6   0  78 SE8       30.18F WCI  -7
WOLF CREEK PAS FAIR       9 -20  26 MISG      30.03S
$$

COZ009-010-012-014-032>034-037-058>063-240900-
...CENTRAL COLORADO...

CITY           SKY/WX    TMP DP  RH WIND       PRES   REMARKS
ASPEN          FAIR       1  -5  75 SW7       30.20F WCI -12
BUENA VISTA    FAIR      15   0  52 NW26G38   30.06F WCI  -5
COPPER MTN     FAIR       3  -6  66 W18G25    30.03F WCI -17
BERTHOUD PASS  NOT AVBL
COTTONWOOD PAS FAIR      14  -6  41 NW17G25   30.00F WCI  -3
GUNNISON       FAIR      -8 -13  77 CALM      30.22F
KREMMLING      CLOUDY    10   5  79 CALM      30.22S
LEADVILLE      FAIR      -1  -6  79 N16       30.07F WCI -21
SALIDA         FAIR       9   0  66 W10       30.17F WCI  -6
SUNLIGHT         N/A    N/A N/A N/A MISG      30.12F
WILKERSON PASS FAIR       5  -6  61 N13G23    29.95F WCI -12
$$

COZ069>075-240900-
...SAN LUIS VALLEY/SANGRE DE CRISTO MOUNTAINS...

CITY           SKY/WX    TMP DP  RH WIND       PRES   REMARKS
ALAMOSA        FAIR       8   0  69 NE10      30.10F WCI  -6
LA VETA PASS   FAIR       3  -4  72 S7        29.99F WCI  -9
SAGUACHE       FAIR      10   0  61 NW16      30.11F WCI  -7
$$

COZ035-036-038>040-240900-
...NORTHERN COLORADO FRONT RANGE...

CITY           SKY/WX    TMP DP  RH WIND       PRES   REMARKS
DENVER INTL AP FAIR      17   8  67 S10       30.05F WCI   5
DMNS CITY PARK   N/A     20   7  55 S6        30.05F WCI  13
AURORA         PTCLDY    16   6  66 S12       30.05F WCI   3
FRONT RANGE AP FAIR      18  12  79 S9        30.06F WCI   6
ERIE MUNI ARPT   N/A     20  10  67 CALM      30.05F
BOULDER MUN AP FAIR      21   9  58 S3        30.03F
CENTENNIAL     FAIR      13   5  70 S7        30.04F WCI   3
BROOMFIELD     FAIR      21  10  63 CALM      30.04F
FORT COLLINS   FAIR      18   7  62 SW6       30.06F WCI   9
LONGMONT       FAIR      18   8  66 W3        30.06F
$$

COZ041-046-047-076>085-087-088-240900-
...PIKES PEAK/PALMER DIVIDE AND SOUTHERN FOOTHILLS...

CITY           SKY/WX    TMP DP  RH WIND       PRES   REMARKS
COLO. SPRINGS  FAIR      16   2  54 N6        30.07F WCI   7
A. F. ACADEMY  FAIR       7  -1  69 NE7       30.05F WCI  -4
ELLICOTT       NOT AVBL
FALCON         FAIR      12   2  66 NW5       30.05F WCI   4
FORT CARSON    FAIR      17   3  54 W6        30.06F WCI   9
LIMON          FAIR      15   9  76 W12       30.06F WCI   2
MONUMENT HILL  FAIR       9   0  66 W9        30.01F WCI  -5
TRINIDAD         N/A    N/A N/A N/A MISG      30.11F
$$

COZ042>045-048>051-090-091-240900-
...NORTHEAST COLORADO...

CITY           SKY/WX    TMP DP  RH WIND       PRES   REMARKS
GREELEY ARPT   FAIR      10   1  67 NW3       30.05F
AKRON          FAIR      15  10  80 W13       30.05F WCI   1
BURLINGTON     FAIR      16  11  80 NW10      30.06F WCI   4
WRAY           FAIR      15  13  89 SW5       30.08F WCI   8
STERLING       FAIR      12  10  92 CALM      30.07F
HOLYOKE        FAIR      19  16  86 W8        30.06F WCI   9
FORT MORGAN    FAIR      18   9  70 W9        30.07F WCI   6
$$

COZ086-089-092>099-240900-
...SOUTHEAST COLORADO...

CITY           SKY/WX    TMP DP  RH WIND       PRES   REMARKS
PUEBLO         FAIR      15   9  76 CALM      30.11F
LA JUNTA       FAIR      21  11  65 W12       30.11F WCI   9
LAMAR          FAIR      19  15  84 W6        30.11F WCI  11
SPRINGFIELD      N/A     19  15  84 NW10      30.08F WCI   7
$$



USA.gov is the U.S. government's official web portal to all federal, state and local government web resources and services.